Home > Weather > Zomba > Past weeks

Flag for Malawi Past Weather in Zomba, Malawi — Yesterday and Last 2 Weeks

Now
63 °F

Passing clouds.


Feels Like: 63 °F
Forecast: 52 / 68 °F
Wind: N/A

Location: Nampula Airport

Current Time: May 30, 2016 at 7:13:39 AM

Latest Report: May 30, 2016 at 5:00 AM


Visibility: N/A

Pressure: 30.09 "Hg (27.07 "Hg at 897m altitude)

Humidity: 100%

Dew Point: 63 °F

Location of ZombaLocation

Past Weather in Zomba — Graph

°F

Zomba Temperature Yesterday

Maximum temperature yesterday: 79 °F (at 3:00 PM)
Minimum temperature yesterday: 63 °F (at 4:00 AM)
Average temperature yesterday: 71 °F

High & Low Weather Summary for the Past Weeks

 TemperatureHumidityPressure
High82 °F (May 25, 12:00 PM)100% (May 21, 2:00 PM)30.27 "Hg (May 21, 2:00 PM)
Low61 °F (May 23, 5:00 AM)40% (May 25, 1:00 PM)30.04 "Hg (May 19, 3:00 PM)
Average72 °F72%30.15 "Hg
* Reported May 19 3:00 PM — May 30 5:00 AM, Zomba, Weather by CustomWeather, © 2016

Note: Actual official high and low records may vary slightly from our data, if they occured in-between our weather recording intervals... More about our weather records

Advertising

Zomba Weather History for the Previous 24 Hours

Scroll right to see more
 ConditionsComfort  
Time TempWeatherWind HumidityBarometerVisibility
5:00 AM
Mon, May 30
63 °FPassing clouds.N/A100%30.09 "HgN/A
4:00 AM63 °FPassing clouds.N/A100%30.07 "HgN/A
3:00 AM63 °FPassing clouds.N/A100%30.07 "HgN/A
2:00 AM64 °FClear.N/A88%30.09 "Hg10 mi
12:00 AM64 °FClear.6 mph88%30.09 "Hg10 mi
11:00 PM
Sun, May 29
66 °FClear.5 mph88%30.09 "Hg10 mi
10:00 PM68 °FPassing clouds.6 mph83%30.12 "HgN/A
9:00 PM72 °FClear.6 mph73%30.12 "Hg10 mi
7:00 PM75 °FPassing clouds.7 mph54%30.07 "HgN/A
6:00 PM77 °FPassing clouds.5 mph51%30.07 "HgN/A
5:00 PM79 °FPassing clouds.7 mph51%30.07 "HgN/A
4:00 PM79 °FPartly sunny.8 mph51%30.07 "HgN/A
3:00 PM79 °FPartly sunny.12 mph48%30.07 "HgN/A
2:00 PM77 °FPartly sunny.12 mph51%30.07 "HgN/A
1:00 PM77 °FPartly sunny.16 mph57%30.09 "HgN/A
12:00 PM77 °FPartly sunny.16 mph57%30.09 "HgN/A
8:00 AM66 °FScattered clouds.14 mph83%30.15 "HgN/A
Weather by CustomWeather, © 2016

See weather overviewHow to use our weather pages